Walla Walla, WA

10:18 AM PDT on June 28, 2017 (GMT -0700)
Walla Walla Regional

Weather History for KALW - June, 2013

Change the Weather History Date:

Tuesday, June 4, 2013

  Actual Average Record
Temperature  
Mean Temperature 65 °F 64 °F  
Max Temperature 84 °F 75 °F 98 °F (1969)
Min Temperature 48 °F 52 °F 39 °F (1991)
Degree Days  
Heating Degree Days 0 3  
Month to date heating degree days 14  
Since 1 June heating degree days 14  
Since 1 July heating degree days 4963  
Cooling Degree Days 0 2  
Month to date cooling degree days 8  
Year to date cooling degree days 43  
Since 1 June cooling degree days 8  
Growing Degree Days 15 (Base 50)    
Moisture  
Dew Point 44 °F    
Average Humidity 44    
Maximum Humidity 74    
Minimum Humidity 22    
Precipitation  
Precipitation 0.00 in 0.06 in 0.76 in (1984)
Month to date precipitation 0.26  
Year to date precipitation 10.90  
Snow  
Snow 0.00 in 0.00 in 0.00 in (2002)
Month to date snowfall 0.0  
Year to date snowfall 6.0  
Since 1 July snowfall 11.7  
Snow Depth -    
Sea Level Pressure  
Sea Level Pressure 30.05 in    
Wind  
Wind Speed 5 mph (SSE)    
Max Wind Speed 10 mph    
Max Gust Speed -    
Visibility 9 miles    
Events      
T = Trace of Precipitation, MM = Missing Value Source: NWS Daily Summary

Daily Weather History Graph

Daily Weather History Graph

Search for Another Location

Airport or City:

Trip Planner

Search our weather history database for the weather conditions in past years. The results will help you decide how hot, cold, wet, or windy it might be!

Date:

Astronomy

Jun. 04, 2013 Rise Set
Actual Time 5:03 AM PDT 8:39 PM PDT
Civil Twilight 4:26 AM PDT 9:17 PM PDT
Nautical Twilight 3:35 AM PDT 10:08 PM PDT
Astronomical Twilight 2:28 AM PDT 11:16 PM PDT
Moon 2:47 AM PDT (6/4) 5:04 PM PDT (6/4)
Length of Visible Light 16h 51m
Length of Day
15h 35m
Waning Crescent, 13% of the Moon is Illuminated
Jun 4
Waning Crescent
Jun 8
New
Jun 16
First Quarter
Jun 23
Full
Jun 29
Last Quarter

Hourly Weather History & Observations

Time (PDT) Temp. Dew Point Humidity Pressure Visibility Wind Dir Wind Speed Gust Speed Precip Events Conditions
12:53 AM 61.0 °F 42.1 °F 50% 30.01 in 10.0 mi SSE 5.8 mph - N/A   Scattered Clouds
1:53 AM 57.0 °F 41.0 °F 55% 30.01 in 10.0 mi Calm Calm - N/A   Clear
2:53 AM 55.0 °F 42.1 °F 62% 30.02 in 10.0 mi ESE 3.5 mph - N/A   Clear
3:53 AM 55.9 °F 42.1 °F 60% 30.03 in 10.0 mi ESE 4.6 mph - N/A   Clear
4:53 AM 48.9 °F 41.0 °F 74% 30.05 in 10.0 mi Calm Calm - N/A   Clear
5:53 AM 55.9 °F 42.1 °F 60% 30.06 in 10.0 mi SE 6.9 mph - N/A   Clear
6:53 AM 61.0 °F 42.1 °F 50% 30.08 in 10.0 mi South 5.8 mph - N/A   Clear
7:35 AM 60.8 °F 44.6 °F 55% 30.10 in 3.0 mi WSW 6.9 mph - N/A   Haze
7:53 AM 61.0 °F 45.0 °F 56% 30.10 in 2.0 mi WSW 5.8 mph - N/A   Haze
8:03 AM 60.8 °F 44.6 °F 55% 30.11 in 10.0 mi WSW 5.8 mph - N/A   Partly Cloudy
8:53 AM 63.0 °F 45.0 °F 52% 30.11 in 10.0 mi SW 5.8 mph - N/A   Partly Cloudy
9:53 AM 66.0 °F 45.0 °F 47% 30.12 in 10.0 mi Variable 3.5 mph - N/A   Clear
10:53 AM 70.0 °F 43.0 °F 38% 30.11 in 10.0 mi Variable 4.6 mph - N/A   Clear
11:25 AM 71.6 °F 44.6 °F 38% 30.11 in 6.0 mi Calm Calm - N/A   Haze
11:53 AM 75.0 °F 44.1 °F 33% 30.10 in 10.0 mi Variable 3.5 mph - N/A   Clear
12:53 PM 78.1 °F 42.1 °F 28% 30.08 in 6.0 mi NW 10.4 mph - N/A   Haze
1:53 PM 79.0 °F 41.0 °F 26% 30.06 in 10.0 mi Variable 4.6 mph - N/A   Clear
2:53 PM 80.1 °F 41.0 °F 25% 30.05 in 10.0 mi Variable 5.8 mph - N/A   Clear
3:53 PM 82.0 °F 39.0 °F 22% 30.04 in 10.0 mi Variable 3.5 mph - N/A   Clear
4:53 PM 82.0 °F 39.0 °F 22% 30.02 in 10.0 mi ESE 3.5 mph - N/A   Clear
5:53 PM 82.9 °F 39.9 °F 22% 30.01 in 10.0 mi NE 5.8 mph - N/A   Clear
6:53 PM 81.0 °F 45.0 °F 28% 30.01 in 10.0 mi WSW 6.9 mph - N/A   Clear
7:53 PM 79.0 °F 46.9 °F 32% 30.01 in 10.0 mi SW 5.8 mph - N/A   Clear
8:53 PM 75.0 °F 50.0 °F 41% 30.01 in 10.0 mi Calm Calm - N/A   Clear
9:53 PM 66.9 °F 52.0 °F 59% 30.01 in 10.0 mi ESE 6.9 mph - N/A   Clear
10:53 PM 64.0 °F 48.0 °F 56% 30.01 in 10.0 mi East 8.1 mph - N/A   Clear
11:53 PM 64.0 °F 46.9 °F 54% 30.01 in 10.0 mi East 8.1 mph - N/A   Clear